User: anonymous   Login
Location: Mouss�
(47.9236°N, 1.2701°W)
Time: 17:29:53
(UTC+00:00)
Language:

Cosmos 1689 Rocket - Orbit

View from above orbital plane
View from above orbital plane
View from above satellite
View from above satellite

Ground track
Ground track

The orbit data is extracted from the following two-line orbital elements,

1 16111U 85090B   21128.12490402  .00010327  00000-0  80025-4 0  9990
2 16111  97.4798 328.3045 0010344 132.0491 228.1654 15.71988426965888
Epoch (UTC): 08 May 2021 02:59:51
Eccentricity: 0.0010344
inclination: 97.4798°
perigee height: 346 km
apogee height: 360 km
right ascension of ascending node: 328.3045°
argument of perigee: 132.0491°
revolutions per day: 15.71988426
mean anomaly at epoch: 228.1654°
orbit number at epoch: 96588

The dashed part of the orbit path shows where the satellite is in the earth's shadow,  

DLR